Weather History for Phoenix-Mesa Gateway Airport, AZ

Change the Weather History Date:

Friday, December 7, 2012

  Actual Average Record
Temperature  
Mean Temperature 60 °F -  
Max Temperature 73 °F 63 °F 78 °F (2006)
Min Temperature 46 °F 39 °F 30 °F (2005)
Degree Days  
Heating Degree Days 6    
Growing Degree Days 10 (Base 50)    
Moisture  
Dew Point 34 °F    
Average Humidity 47    
Maximum Humidity 62    
Minimum Humidity 27    
Precipitation  
Precipitation 0.00 in - - ()
Sea Level Pressure  
Sea Level Pressure 29.91 in    
Wind  
Wind Speed 5 mph (ESE)    
Max Wind Speed 8 mph    
Max Gust Speed -    
Visibility 12 miles    
Events      
Averages and records for this station are not official NWS values.
T = Trace of Precipitation, MM = Missing Value Source: NWS Daily Summary

Daily Weather History Graph

Daily Weather History Graph

Search for Another Location

Airport:

Trip Planner

Search our weather history database for the weather conditions in past years. The results will help you decide how hot, cold, wet, or windy it might be!

Date:

Astronomy

Dec. 07, 2012 Rise Set
Actual Time 7:17 AM MST 5:19 PM MST
Civil Twilight 6:50 AM MST 5:46 PM MST
Nautical Twilight 6:19 AM MST 6:17 PM MST
Astronomical Twilight 5:49 AM MST 6:47 PM MST
Moon 12:57 AM MST (12/7) 1:03 PM MST (12/7)
Length of Visible Light 10h 56m
Length of Day
10h 01m
Last Quarter, 38% of the Moon is Illuminated
Dec 7
Last Quarter
Dec 13
New
Dec 19
First Quarter
Dec 28
Full
Jan 4
Last Quarter

Hourly Weather History & Observations

Time (MST) Temp. Windchill Dew Point Humidity Pressure Visibility Wind Dir Wind Speed Gust Speed Precip Events Conditions
12:15 AM 51.8 °F - 33.8 °F 50% 29.89 in 10.0 mi ESE 4.6 mph - N/A   Clear
12:35 AM 51.8 °F - 33.8 °F 50% 29.89 in 10.0 mi ESE 4.6 mph - N/A   Clear
12:55 AM 51.8 °F - 33.8 °F 50% 29.88 in 10.0 mi ESE 5.8 mph - N/A   Clear
1:15 AM 50.0 °F - 32.0 °F 50% 29.88 in 10.0 mi ESE 4.6 mph - N/A   Clear
1:35 AM 50.0 °F - 33.8 °F 54% 29.89 in 10.0 mi SE 5.8 mph - N/A   Clear
1:55 AM 50.0 °F - 33.8 °F 54% 29.89 in 10.0 mi SE 5.8 mph - N/A   Clear
2:15 AM 48.2 °F - 33.8 °F 58% 29.89 in 10.0 mi ESE 5.8 mph - N/A   Clear
2:35 AM 46.4 °F 43.5 °F 32.0 °F 57% 29.90 in 10.0 mi East 5.8 mph - N/A   Clear
2:55 AM 46.4 °F 44.3 °F 32.0 °F 57% 29.89 in 10.0 mi ESE 4.6 mph - N/A   Clear
3:15 AM 50.0 °F - 33.8 °F 54% 29.89 in 10.0 mi ESE 4.6 mph - N/A   Clear
3:35 AM 48.2 °F - 32.0 °F 54% 29.89 in 10.0 mi East 4.6 mph - N/A   Clear
3:55 AM 48.2 °F - 32.0 °F 54% 29.89 in 10.0 mi ESE 4.6 mph - N/A   Clear
4:15 AM 46.4 °F 42.9 °F 32.0 °F 57% 29.89 in 10.0 mi ESE 6.9 mph - N/A   Clear
4:35 AM 46.4 °F 43.5 °F 32.0 °F 57% 29.89 in 10.0 mi ESE 5.8 mph - N/A   Clear
4:55 AM 48.2 °F - 32.0 °F 54% 29.89 in 10.0 mi ESE 6.9 mph - N/A   Clear
5:15 AM 48.2 °F - 32.0 °F 54% 29.90 in 10.0 mi ESE 6.9 mph - N/A   Clear
6:47 AM 48.2 °F - 32.0 °F 54% 29.90 in 20.0 mi East 4.6 mph - N/A   Clear
7:47 AM 46.4 °F 44.3 °F 33.8 °F 62% 29.93 in 30.0 mi ESE 4.6 mph - N/A   Clear
8:50 AM 53.6 °F - 35.6 °F 51% 29.95 in 30.0 mi ESE 3.5 mph - N/A   Clear
9:49 AM 60.8 °F - 37.4 °F 42% 29.96 in 30.0 mi SE 3.5 mph - N/A   Clear
10:47 AM 64.4 °F - 35.6 °F 34% 29.96 in 30.0 mi Calm Calm - N/A   Clear
11:47 AM 68.0 °F - 35.6 °F 30% 29.94 in 30.0 mi Calm Calm - N/A   Clear
12:49 PM 69.8 °F - 35.6 °F 28% 29.92 in 30.0 mi Calm Calm - N/A   Clear
1:47 PM 73.4 °F - 37.4 °F 27% 29.93 in 30.0 mi Variable 3.5 mph - N/A   Clear
2:47 PM 73.4 °F - 37.4 °F 27% 29.89 in 30.0 mi West 4.6 mph - N/A   Clear
3:47 PM 73.4 °F - 37.4 °F 27% 29.88 in 30.0 mi WSW 4.6 mph - N/A   Clear
4:47 PM 73.4 °F - 39.2 °F 29% 29.89 in 30.0 mi West 5.8 mph - N/A   Clear
5:47 PM 69.8 °F - 35.6 °F 28% 29.90 in 20.0 mi Calm Calm - N/A   Clear
6:47 PM 64.4 °F - 37.4 °F 37% 29.90 in 20.0 mi Calm Calm - N/A   Clear
7:47 PM 60.8 °F - 35.6 °F 39% 29.91 in 20.0 mi Calm Calm - N/A   Clear
7:55 PM 60.8 °F - 35.6 °F 39% 29.91 in 10.0 mi Calm Calm - N/A   Clear
8:15 PM 57.2 °F - 33.8 °F 41% - - North - - N/A   Clear
8:35 PM 57.2 °F - 35.6 °F 44% - 10.0 mi North - - N/A   Clear
8:47 PM 57.2 °F - 37.4 °F 48% 29.92 in 20.0 mi Variable 3.5 mph - N/A   Clear
8:55 PM 55.4 °F - 33.8 °F 44% 29.92 in 10.0 mi East 5.8 mph - N/A   Clear
9:15 PM 55.4 °F - 33.8 °F 44% 29.93 in 10.0 mi ESE 6.9 mph - N/A   Clear
9:35 PM 53.6 °F - 33.8 °F 47% 29.93 in 10.0 mi East 6.9 mph - N/A   Clear
9:55 PM 51.8 °F - 33.8 °F 50% 29.93 in 10.0 mi ESE 8.1 mph - N/A   Clear
10:15 PM 51.8 °F - 33.8 °F 50% 29.93 in 10.0 mi East 5.8 mph - N/A   Clear
10:35 PM 51.8 °F - 33.8 °F 50% 29.93 in 10.0 mi East 4.6 mph - N/A   Clear
10:55 PM 50.0 °F - 33.8 °F 54% 29.93 in 10.0 mi SE 4.6 mph - N/A   Clear
11:15 PM 51.8 °F - 35.6 °F 54% 29.93 in 10.0 mi SE 6.9 mph - N/A   Clear
11:35 PM 50.0 °F - 35.6 °F 58% 29.93 in 10.0 mi SE 8.1 mph - N/A   Clear
11:55 PM 51.8 °F - 35.6 °F 54% 29.93 in 10.0 mi SE 5.8 mph - N/A   Clear